Regional Weather Roundup
Issued by NWS

Home | Current Version | Previous Version | Text Only | Print | Product List | Glossary On
Versions: 1 2 3 4 5 6 7 8 9 10 11 12 13 14 15 16 17 18 19 20 21 22 23 24 25 26 27 28 29 30 31 32 33 34 35 36 37 38 39 40 41 42 43 44 45 46 47 48 49 50
000
ASUS44 KFWD 191903
RWRTX
NORTH TEXAS HOURLY WEATHER ROUNDUP
NATIONAL WEATHER SERVICE FORT WORTH TX
100 PM CST THU JAN 19 2017

NOTE: "FAIR" INDICATES FEW OR NO CLOUDS BELOW 12,000 FEET WITH NO
SIGNIFICANT WEATHER AND/OR OBSTRUCTIONS TO VISIBILITY.

TXZ118-119-192000-
DALLAS/FORT WORTH METROPLEX

CITY           SKY/WX    TMP DP  RH WIND       PRES   REMARKS
DFW AIRPORT    MOSUNNY   60  51  72 S15       29.70F
DALLAS LOVE    MOSUNNY   62  50  64 SE14      29.72F
FTW MEACHAM    SUNNY    N/A N/A N/A S12       29.70F
DAL-EXECUTIVE  SUNNY     59  51  75 S12G20    29.72F
FTW-ALLIANCE   MOSUNNY   63  48  58 S13G18    29.70F
FTW-NAS-JRB    MOSUNNY   65  49  56 S13       29.71F
FTW-SPINKS     SUNNY     64  50  59 S12       29.73F
ARLINGTON      SUNNY     60  50  69 S13       29.72F
GRAND PRAIRIE  SUNNY     59  48  67 S13       29.74F
ADDISON        SUNNY     59  55  88 S14       29.73F
MESQUITE       PTSUNNY   55  52  88 SE12      29.76F
LANCASTER      PTSUNNY   56  51  82 S10       29.75F
$$

TXZ091>094-102>105-117-120-121-131>134-192000-
NORTH CENTRAL TEXAS

CITY           SKY/WX    TMP DP  RH WIND       PRES   REMARKS
SHRMAN/DENISON MOSUNNY   58  51  78 S13       29.72F
GAINESVILLE    PTSUNNY   53  49  87 S12       29.71F
BOWIE          SUNNY     62  49  61 S12G20    29.66F
BRIDGEPORT     SUNNY     66  48  52 SW10G17   29.69F
DECATUR        SUNNY     69  52  54 S9G17     29.68F
DENTON         SUNNY     61  50  67 S15       29.70F
MCKINNEY       PTSUNNY   55  51  86 S15       29.72F
BONHAM         CLOUDY    54  50  87 S15       29.73F
GREENVILLE     CLOUDY    54  52  94 S12       29.75F
ROCKWALL       CLOUDY    55  51  87 S14G23    29.75F
TERRELL        CLOUDY    54  50  86 S14       29.76F
WAXAHACHIE     MOSUNNY   57  52  83 SE10      29.76F
CLEBURNE       SUNNY     63  54  72 SE13      29.73F
GRANBURY       SUNNY     69  47  44 SW13      29.70F
$$

TXZ083>090-098>101-113>116-127>130-139>142-154-155-192000-
WESTERN NORTH TEXAS

CITY           SKY/WX    TMP DP  RH WIND       PRES   REMARKS
WICHITA FALLS  MOSUNNY   63  43  48 SW20G30   29.61F
WF-KICKAPOO    SUNNY     64  44  48 SW14G21   29.63F
VERNON         SUNNY     62  39  42 SW17G24   29.59F
ABILENE        SUNNY     66  40  38 W22G32    29.68F
ABILENE-DYESS  MOSUNNY   66  28  24 SW21G29   29.67F
GRAHAM         SUNNY     68  45  42 SW10G23   29.64F
BRECKENRIDGE   SUNNY     67  40  37 SW20G29   29.67F HAZE
CISCO          SUNNY     66  41  39 SW23G35   29.70F
RANGER         SUNNY     64  45  48 SW12G24   29.70F
MINERAL WELLS  SUNNY     69  43  38 SW16G24   29.67F
STEPHENVILLE   SUNNY     67  43  40 SW15G23   29.74F
COMANCHE       SUNNY     67  46  46 SW13      29.73F
BROWNWOOD      SUNNY     68  46  45 SW12G17   29.72F
COLEMAN        SUNNY     68  39  34 W25G35    29.73F
$$

TXZ143>147-156>162-174-175-192000-
CENTRAL TEXAS

CITY           SKY/WX    TMP DP  RH WIND       PRES   REMARKS
WACO           SUNNY     62  53  72 S13       29.76F
WACO-MCGREGOR  SUNNY     63  54  72 S13       29.76F
HILLSBORO      MOSUNNY   60  53  79 S17       29.75F
CORSICANA      CLOUDY    57  52  83 S13       29.78F
MEXIA          CLOUDY    55  51  83 S20       29.78F
HEARNE         CLOUDY    56  54  91 S10       29.83F
CAMERON        CLOUDY    58  53  83 S12G20    29.80F
TEMPLE         SUNNY     61  54  77 S15       29.78F
KILLEEN        SUNNY     67  48  49 S13G18    29.75F
KILLEEN-SKYLRK SUNNY     67  53  61 S10       29.76F
FORT HOOD      SUNNY     67  52  58 S10       29.73F
HAMILTON       SUNNY     69  46  44 SW17G24   29.75F
LAMPASAS       SUNNY     65  51  58 SW13      29.76F
$$

TXZ095>097-106>112-122>126-135>138-148>153-164>167-192000-
EAST TEXAS

CITY           SKY/WX    TMP DP  RH WIND       PRES   REMARKS
PARIS          CLOUDY    54  50  87 S9        29.76F
SULPHUR SPRNGS CLOUDY    53  53  99 S9        29.78F FOG
MOUNT PLEASANT CLOUDY    54  54 100 S7        29.77F
GILMER         CLOUDY    54  54  98 S6        29.77F
MINEOLA        CLOUDY    54  52  94 S7        29.76F
TYLER          FOG       54  53  97 SW12      29.76F VSB 1
LONGVIEW       CLOUDY    56  56 100 SW12      29.77F
MARSHALL       CLOUDY    55  53  94 CALM      29.78F VSB 1/2
ATHENS         CLOUDY    52  52 100 S9        29.76F FOG
PALESTINE      CLOUDY    53  53 100 S10       29.82F FOG
JACKSONVILLE   FOG       53  53 100 SW8       29.81F VSB 3/4
HENDERSON      CLOUDY   N/A N/A N/A SW8       29.80F
CENTER         CLOUDY    60  58  96 SW8       29.81S
NACOGDOCHES    CLOUDY    55  54  94 SW10      29.80F
LUFKIN         CLOUDY    57  56  96 SW9       29.81F
$$

SUPPLEMENTAL OBSERVATIONS (CENTRAL)

CITY           SKY/WX    TMP DP  RH WIND       PRES   REMARKS
$$

SUPPLEMENTAL OBSERVATIONS (WEST)

CITY           SKY/WX    TMP DP  RH WIND       PRES   REMARKS
$$

SUPPLEMENTAL OBSERVATIONS (EAST)

CITY           SKY/WX    TMP DP  RH WIND       PRES   REMARKS
$$

SUPPLEMENTAL OBSERVATIONS ARE A COLLECTION OF AUTOMATED INSTRUMENTS
THAT ARE MAINTAINED BY A VARIETY OF FEDERAL AND STATE AGENCIES.
CERTAIN ELEMENTS...SUCH AS HUMIDITY VALUES AND SUSTAINED WIND
SPEEDS...MAY BE APPROXIMATED.





USA.gov is the U.S. government's official web portal to all federal, state and local government web resources and services.